FW1249 Weather Reports


time (UTC)temp
C
wind
direction
speed
KPH
gust
KPH
rain 1hr
cm
rain 24hr
cm
rain mn
cm
humidity
%
barometer
mb
20260506190248 13 26 1.6 6.4 0.00 3.40 0.58 52 1021.9
20260506185746 13 28 1.6 6.4 0.00 3.40 0.58 56 1021.9
20260506185246 13 28 1.6 4.8 0.00 3.40 0.58 53 1022.0
20260506184745 13 15 1.6 4.8 0.00 3.40 0.58 56 1022.2
20260506184244 13 27 1.6 4.8 0.00 3.40 0.58 55 1021.9
20260506183742 13 95 1.6 4.8 0.00 3.40 0.58 57 1022.0
20260506183242 12 30 1.6 8.0 0.00 3.40 0.58 61 1021.9
20260506183013 12 43 1.6 8.0 0.00 3.40 0.58 61 1022.0
20260506182512 12 38 1.6 8.0 0.00 3.40 0.58 61 1021.9
20260506181238 12 349 1.6 6.4 0.00 3.40 0.58 66 1021.9
20260506180738 12 5 1.6 6.4 0.00 3.40 0.58 64 1022.0
20260506180237 12 5 3.2 6.4 0.00 3.40 0.58 65 1022.1
20260506175738 12 54 1.6 4.8 0.00 3.40 0.58 66 1022.0
20260506174738 12 70 1.6 4.8 0.00 3.40 0.58 67 1021.7
20260506174236 12 287 1.6 6.4 0.00 3.40 0.58 68 1021.5
20260506173735 12 80 1.6 6.4 0.00 3.40 0.58 67 1021.5
20260506173236 12 5 1.6 6.4 0.00 3.40 0.58 69 1021.6
20260506172736 12 289 1.6 6.4 0.00 3.40 0.58 66 1021.7
20260506172507 12 37 1.6 6.4 0.00 3.40 0.58 68 1021.9
20260506171732 12 32 1.6 6.4 0.00 3.40 0.58 67 1022.0
20260506171502 12 24 3.2 8.0 0.00 3.40 0.58 69 1022.1
20260506170732 12 97 3.2 8.0 0.00 3.40 0.58 67 1022.0
20260506165731 12 43 1.6 6.4 0.00 3.40 0.58 71 1021.7
20260506165232 12 28 1.6 4.8 0.00 3.40 0.58 68 1021.6
20260506164732 12 5 1.6 4.8 0.00 3.40 0.58 70 1021.5
20260506164502 12 61 1.6 4.8 0.00 3.40 0.58 70 1021.4
20260506163731 11 31 1.6 4.8 0.00 3.40 0.58 70 1021.4
20260506163232 11 70 1.6 4.8 0.00 3.40 0.58 71 1021.3
20260506162731 11 22 1.6 4.8 0.00 3.40 0.58 73 1021.2
20260506162503 11 24 1.6 4.8 0.00 3.40 0.58 74 1021.4
20260506161731 12 24 1.6 8.0 0.00 3.40 0.58 71 1021.4
20260506161231 12 20 1.6 8.0 0.00 3.40 0.58 75 1021.4
20260506160731 11 9 1.6 8.0 0.00 3.40 0.58 76 1021.4
20260506160232 11 300 1.6 8.0 0.00 3.40 0.58 75 1021.3
20260506155731 11 5 1.6 6.4 0.00 3.40 0.58 79 1021.3
20260506155233 10 15 1.6 6.4 0.00 3.40 0.58 78 1021.2
20260506154727 11 20 1.6 6.4 0.00 3.40 0.58 77 1021.0
20260506154452 10 41 1.6 6.4 0.00 3.40 0.58 79 1021.0
20260506153715 11 45 1.6 6.4 0.00 3.40 0.58 80 1020.8
20260506153209 10 0 1.6 6.4 0.00 3.40 0.58 77 1020.7
20260506152703 11 22 1.6 4.8 0.00 3.40 0.58 81 1020.5
20260506152157 10 16 1.6 4.8 0.00 3.40 0.58 80 1020.5
20260506151651 10 55 1.6 6.4 0.00 3.40 0.58 82 1020.5
20260506150639 10 13 1.6 6.4 0.00 3.40 0.58 83 1020.6
20260506150133 10 346 1.6 6.4 0.00 3.40 0.58 86 1020.4
20260506145627 10 52 1.6 6.4 0.00 3.40 0.58 85 1020.2
20260506145121 10 61 1.6 8.0 0.00 3.40 0.58 85 1020.0
20260506144615 10 349 1.6 8.0 0.00 3.40 0.58 84 1020.1
20260506144341 10 52 0.0 8.0 0.00 3.40 0.58 86 1020.0
20260506143834 9 270 0.0 4.8 0.00 3.40 0.58 88 1019.9
20260506143057 9 5 0.0 4.8 0.00 3.40 0.58 88 1019.8
20260506142553 8 315 0.0 4.8 0.00 3.40 0.58 88 1019.9
20260506142045 8 98 0.0 4.8 0.00 3.40 0.58 89 1019.8
20260506141540 8 30 1.6 4.8 0.00 3.40 0.58 89 1019.8
20260506141033 8 19 1.6 4.8 0.00 3.40 0.58 89 1019.8
20260506140758 8 5 1.6 4.8 0.00 3.40 0.58 90 1019.7
20260506135515 8 231 0.0 4.8 0.00 3.40 0.58 92 1019.9
20260506135241 8 215 0.0 4.8 0.00 3.40 0.58 93 1019.9
20260506134503 7 355 0.0 3.2 0.00 3.40 0.58 93 1019.7
20260506133957 7 262 0.0 3.2 0.00 3.40 0.58 93 1019.7
20260506133451 8 44 0.0 3.2 0.00 3.40 0.58 94 1019.7
20260506132945 8 14 0.0 3.2 0.00 3.40 0.58 94 1019.6
20260506132710 8 14 0.0 3.2 0.00 3.40 0.58 94 1019.4
20260506132204 8 14 0.0 3.2 0.00 3.40 0.58 94 1019.5
20260506131427 8 14 0.0 3.2 0.00 3.40 0.58 94 1019.4
20260506131153 8 14 0.0 3.2 0.00 3.40 0.58 94 1019.2
20260506125909 8 14 0.0 3.2 0.00 3.40 0.58 95 1018.8
20260506125403 8 14 0.0 3.2 0.00 3.40 0.58 95 1018.9
20260506124857 8 14 0.0 3.2 0.00 3.40 0.58 95 1018.6
20260506124351 7 14 0.0 3.2 0.00 3.40 0.58 95 1018.5
20260506123845 7 14 0.0 0.0 0.00 3.40 0.58 95 1018.7
20260506123339 7 14 0.0 0.0 0.00 3.40 0.58 95 1018.7
20260506122328 7 14 0.0 0.0 0.00 3.40 0.58 95 1018.8
20260506122052 7 14 0.0 0.0 0.00 3.40 0.58 95 1019.1
20260506121316 7 14 0.0 0.0 0.00 3.40 0.58 95 1018.9
20260506120810 7 14 0.0 0.0 0.00 3.40 0.58 95 1018.7
20260506120303 7 14 0.0 0.0 0.03 3.40 0.58 95 1018.8
20260506115757 7 14 0.0 0.0 0.03 3.40 0.58 94 1018.6
20260506115252 7 14 0.0 0.0 0.03 3.40 0.58 94 1018.7
20260506114745 7 14 0.0 0.0 0.03 3.40 0.58 94 1018.7
20260506114239 7 14 0.0 0.0 0.03 3.40 0.58 94 1018.5
20260506113734 7 14 0.0 0.0 0.03 3.40 0.58 94 1018.3
20260506113227 7 14 0.0 0.0 0.03 3.40 0.58 94 1018.2
20260506112953 7 14 0.0 3.2 0.03 3.40 0.58 94 1018.1
20260506112215 7 14 0.0 3.2 0.03 3.40 0.58 94 1018.1
20260506111710 7 14 0.0 3.2 0.03 3.40 0.58 94 1018.1
20260506111203 7 14 0.0 3.2 0.03 3.40 0.58 94 1017.7
20260506110928 7 14 0.0 3.2 0.03 3.40 0.58 94 1017.7
20260506110151 7 14 0.0 3.2 0.00 3.38 0.56 94 1017.6
20260506105917 7 14 0.0 3.2 0.00 3.38 0.56 94 1017.5
20260506105140 7 14 0.0 3.2 0.00 3.38 0.56 94 1017.4
20260506104634 6 14 0.0 3.2 0.00 3.38 0.56 94 1017.6
20260506104127 7 14 0.0 3.2 0.00 3.38 0.56 94 1017.8
20260506103851 6 14 0.0 3.2 0.03 3.38 0.56 94 1017.7
20260506103116 7 15 0.0 3.2 0.03 3.38 0.56 94 1017.6
20260506102609 7 14 0.0 3.2 0.03 3.38 0.56 94 1017.6
20260506102333 6 82 0.0 3.2 0.05 3.38 0.56 94 1017.1
20260506101557 6 82 0.0 3.2 0.05 3.38 0.56 94 1016.9
20260506101322 6 82 0.0 3.2 0.05 3.38 0.56 94 1016.8
20260506100545 6 82 0.0 3.2 0.05 3.38 0.56 94 1016.6
20260506100040 7 82 0.0 3.2 0.05 3.38 0.56 94 1016.7
20260506095806 6 82 0.0 3.2 0.05 3.38 0.56 94 1016.9
20260506095258 7 82 0.0 3.2 0.08 3.38 0.56 94 1017.2
20260506094522 7 75 0.0 3.2 0.08 3.38 0.56 94 1017.3
20260506094015 7 34 0.0 4.8 0.08 3.38 0.56 94 1017.8
20260506093509 7 101 1.6 4.8 0.05 3.35 0.53 94 1017.9
20260506093004 7 44 1.6 4.8 0.08 3.35 0.53 94 1018.0
20260506092729 7 44 0.0 4.8 0.10 3.35 0.53 94 1017.8
20260506091952 7 63 0.0 3.2 0.10 3.33 0.51 94 1017.6
20260506091445 7 59 0.0 3.2 0.13 3.33 0.51 94 1017.4
20260506090940 7 49 0.0 3.2 0.15 3.33 0.51 94 1017.2
20260506090708 7 49 0.0 3.2 0.18 3.33 0.51 94 1017.2
20260506085935 7 49 0.0 3.2 0.18 3.33 0.51 94 1017.2
20260506085433 7 49 0.0 3.2 0.20 3.33 0.51 94 1017.1
20260506084933 7 49 0.0 1.6 0.18 3.30 0.48 94 1016.9
20260506084433 7 49 0.0 3.2 0.20 3.30 0.48 94 1016.9
20260506083931 7 49 0.0 3.2 0.20 3.30 0.48 94 1017.0
20260506083429 7 49 0.0 3.2 0.23 3.30 0.48 94 1017.0
20260506082928 7 49 0.0 3.2 0.20 3.28 0.46 94 1017.0
20260506082429 7 49 0.0 3.2 0.20 3.25 0.43 94 1017.3
20260506081927 7 49 0.0 3.2 0.18 3.23 0.41 94 1017.4
20260506081425 7 49 0.0 0.0 0.18 3.20 0.38 94 1017.5
20260506080927 7 49 0.0 0.0 0.15 3.17 0.36 94 1017.7
20260506080425 7 49 0.0 0.0 0.13 3.15 0.33 94 1017.7
20260506073417 7 49 0.0 3.2 0.08 3.07 0.25 94 1017.3
20260506072914 7 49 0.0 3.2 0.10 3.07 0.25 94 1017.3
20260506072415 7 49 0.0 3.2 0.08 3.05 0.23 94 1017.2
20260506071915 7 49 0.0 3.2 0.08 3.05 0.23 94 1017.2
20260506071645 7 49 0.0 3.2 0.05 3.02 0.20 94 1017.2
20260506071144 7 49 0.0 3.2 0.05 3.02 0.20 94 1017.2
20260506070644 7 49 0.0 3.2 0.08 3.02 0.20 94 1017.3
20260506062408 7 49 0.0 3.2 0.08 2.97 0.15 94 1017.4
20260506061908 7 49 0.0 3.2 0.10 2.97 0.15 94 1017.3
20260506061409 7 49 0.0 0.0 0.10 2.97 0.15 94 1017.2
20260506060908 7 49 0.0 3.2 0.13 2.97 0.15 94 1017.4
20260506060409 7 49 0.0 3.2 0.10 2.95 0.15 94 1017.5
20260506051404 7 49 0.0 3.2 0.08 2.84 0.05 93 1017.8
20260506050622 7 49 0.0 3.2 0.08 2.82 0.03 93 1017.9
20260506044834 7 49 0.0 3.2 0.10 2.82 2.82 93 1018.1
20260506044328 8 49 0.0 3.2 0.10 2.79 2.79 93 1018.1
20260506043822 8 49 0.0 3.2 0.13 2.79 2.79 93 1018.1
20260506042810 8 58 0.0 3.2 0.15 2.79 2.79 93 1018.1
20260506042305 8 58 0.0 3.2 0.15 2.77 2.77 93 1018.2
20260506041758 8 58 0.0 3.2 0.18 2.77 2.77 94 1018.3
20260506041253 8 58 0.0 3.2 0.20 2.77 2.77 93 1018.4
20260506040746 8 58 0.0 3.2 0.20 2.74 2.74 93 1018.5
20260506040240 8 58 0.0 3.2 0.25 2.74 2.74 93 1018.5
20260506035735 8 58 0.0 3.2 0.25 2.72 2.72 93 1018.5
20260506035227 8 58 0.0 3.2 0.30 2.72 2.72 93 1018.6
20260506034953 8 42 0.0 3.2 0.30 2.69 2.69 93 1018.6
20260506034217 8 45 0.0 3.2 0.33 2.69 2.69 94 1018.7
20260506033710 9 59 0.0 3.2 0.36 2.67 2.67 94 1018.7
20260506033203 9 11 0.0 3.2 0.38 2.64 2.64 94 1018.7
20260506032658 9 11 0.0 3.2 0.38 2.62 2.64 94 1018.7
20260506032422 9 11 0.0 3.2 0.41 2.62 2.62 94 1018.6
20260506031646 9 11 0.0 3.2 0.43 2.59 2.59 94 1018.5
20260506031139 9 11 0.0 3.2 0.43 2.57 2.57 94 1018.6
20260506030633 9 11 0.0 3.2 0.48 2.54 2.54 94 1018.8
20260506030127 9 11 0.0 1.6 0.43 2.49 2.49 94 1018.7
20260506025622 9 11 0.0 3.2 0.46 2.46 2.46 94 1018.6
20260506025115 9 11 0.0 3.2 0.43 2.41 2.41 94 1018.5
20260506024609 9 11 0.0 3.2 0.43 2.39 2.39 94 1018.2
20260506024104 9 34 0.0 3.2 0.41 2.34 2.36 94 1018.2
20260506023558 9 34 0.0 3.2 0.36 2.29 2.31 93 1018.3
20260506023051 9 34 0.0 3.2 0.33 2.26 2.26 94 1018.1
20260506022817 9 34 0.0 3.2 0.30 2.24 2.24 94 1018.2
20260506022040 9 34 0.0 0.0 0.28 2.18 2.21 94 1018.1
20260506021805 9 34 0.0 0.0 0.25 2.16 2.16 94 1018.1
20260506021027 9 34 0.0 0.0 0.23 2.13 2.13 94 1018.1
20260506020522 9 34 0.0 0.0 0.18 2.06 2.06 94 1018.1
20260506020016 9 34 0.0 0.0 0.15 2.03 2.03 93 1018.2
20260506015740 9 34 0.0 0.0 0.15 2.01 2.01 94 1018.2
20260506015003 9 34 0.0 0.0 0.15 1.98 1.98 94 1018.2
20260506014459 9 34 0.0 0.0 0.15 1.96 1.96 93 1018.2
20260506013952 9 34 0.0 0.0 0.15 1.93 1.93 93 1018.2
20260506013445 9 34 0.0 0.0 0.18 1.93 1.93 93 1018.1
20260506013210 9 34 0.0 0.0 0.20 1.93 1.93 93 1018.0
20260506012434 9 34 0.0 0.0 0.20 1.93 1.93 93 1017.9
20260506011927 9 34 0.0 3.2 0.18 1.91 1.91 93 1018.0
20260506011422 9 34 0.0 3.2 0.18 1.91 1.91 93 1017.9
20260506010915 9 34 0.0 3.2 0.18 1.91 1.91 93 1017.8
20260506010410 9 69 0.0 3.2 0.15 1.88 1.88 93 1017.7
20260506005903 9 30 0.0 3.2 0.15 1.88 1.88 93 1017.8
20260506005358 9 30 0.0 3.2 0.13 1.85 1.85 93 1018.0
20260506004345 9 118 0.0 3.2 0.08 1.78 1.80 93 1017.7
20260506004111 9 118 0.0 3.2 0.05 1.75 1.75 93 1017.5
20260506003604 9 118 0.0 3.2 0.05 1.75 1.75 93 1017.5
20260506002828 9 118 0.0 3.2 0.05 1.73 1.73 93 1017.6
20260506002552 9 118 0.0 3.2 0.05 1.73 1.73 93 1017.6
20260506001816 9 118 0.0 3.2 0.08 1.73 1.73 93 1017.5
20260506001541 9 118 0.0 3.2 0.10 1.73 1.73 93 1017.6
20260506000803 9 130 0.0 3.2 0.15 1.73 1.73 93 1017.4
20260506000529 9 130 0.0 3.2 0.30 1.73 1.73 93 1017.3
20260506000022 9 130 0.0 3.2 0.33 1.73 1.73 93 1017.4
20260505235245 9 130 0.0 3.2 0.33 1.73 1.73 93 1017.3
20260505234745 9 75 0.0 3.2 0.30 1.70 1.70 93 1017.4
20260505234244 9 75 0.0 3.2 0.33 1.70 1.70 93 1017.7
20260505233744 9 89 0.0 3.2 0.38 1.70 1.70 93 1017.7
20260505233244 9 89 0.0 3.2 0.43 1.70 1.70 93 1017.9
20260505232746 9 88 0.0 3.2 0.43 1.68 1.68 92 1017.8
20260505232244 9 79 0.0 3.2 0.43 1.68 1.68 92 1017.9
20260505232015 9 93 0.0 3.2 0.46 1.65 1.65 92 1017.7
20260505231514 9 93 0.0 3.2 0.48 1.63 1.63 92 1018.0
20260505230741 9 93 0.0 3.2 0.46 1.57 1.57 92 1018.4
20260505230242 9 344 0.0 3.2 0.33 1.42 1.42 92 1018.3
20260505225741 9 44 0.0 3.2 0.33 1.40 1.40 92 1017.7
20260505225513 9 46 0.0 3.2 0.38 1.40 1.40 92 1017.7
20260505224738 9 67 0.0 3.2 0.41 1.40 1.40 92 1017.7
20260505223737 9 53 0.0 3.2 0.36 1.32 1.32 91 1018.0
20260505223238 9 21 0.0 3.2 0.36 1.27 1.27 92 1018.1
20260505222738 9 47 0.0 3.2 0.36 1.24 1.27 91 1017.8
20260505222508 9 32 0.0 3.2 0.41 1.22 1.22 91 1017.8
20260505221737 9 28 0.0 3.2 0.43 1.19 1.19 91 1017.9
20260505221237 9 52 0.0 3.2 0.43 1.14 1.17 91 1017.9
20260505221009 9 27 0.0 3.2 0.43 1.12 1.14 91 1017.8
20260505220234 10 28 0.0 3.2 0.51 1.09 1.09 91 1017.8
20260505215733 10 67 0.0 3.2 0.48 1.07 1.07 91 1017.6
20260505215234 10 52 0.0 3.2 0.46 1.02 1.02 91 1017.8
20260505214734 10 14 0.0 3.2 0.46 0.99 0.99 91 1017.6
20260505214234 10 21 0.0 3.2 0.48 0.97 0.97 91 1017.5
20260505213733 10 21 0.0 3.2 0.51 0.97 0.97 91 1017.7
20260505213234 10 44 0.0 4.8 0.51 0.91 0.91 90 1017.8
20260505212734 10 34 1.6 4.8 0.58 0.89 0.89 90 1017.7
20260505212233 10 23 1.6 4.8 0.58 0.81 0.81 90 1017.9
20260505212002 10 44 1.6 4.8 0.53 0.76 0.76 89 1017.7
20260505211232 11 355 1.6 4.8 0.51 0.71 0.71 89 1017.7
20260505210732 11 29 1.6 4.8 0.51 0.69 0.69 89 1017.4
20260505210231 11 22 1.6 4.8 0.41 0.58 0.61 89 1017.5
20260505205732 12 342 1.6 4.8 0.43 0.58 0.58 89 1017.2
20260505205231 12 31 1.6 4.8 0.43 0.56 0.56 90 1017.2
20260505204731 13 41 0.0 3.2 0.43 0.53 0.53 90 1017.2
20260505204232 13 24 0.0 3.2 0.41 0.48 0.48 90 1017.2
20260505203727 13 329 0.0 3.2 0.41 0.46 0.46 90 1017.1
20260505203228 13 329 0.0 3.2 0.36 0.41 0.41 90 1017.2
20260505202725 13 329 0.0 3.2 0.28 0.30 0.33 90 1017.3
20260505202225 13 329 0.0 3.2 0.20 0.23 0.25 90 1017.0
20260505201722 13 329 0.0 3.2 0.20 0.23 0.23 89 1017.0
20260505201219 13 329 0.0 3.2 0.20 0.20 0.20 89 1017.1
20260505200717 13 329 0.0 3.2 0.18 0.18 0.18 88 1017.1
20260505200217 13 329 0.0 3.2 0.18 0.18 0.18 88 1017.2
20260505195710 13 329 0.0 3.2 0.15 0.15 0.15 88 1017.2
20260505195205 13 28 0.0 3.2 0.13 0.13 0.13 87 1017.4
20260505194152 13 313 0.0 4.8 0.08 0.08 0.08 85 1017.6
20260505193647 13 11 0.0 4.8 0.05 0.05 0.05 85 1017.3
20260505193141 13 11 0.0 4.8 0.05 0.05 0.05 83 1017.3
20260505192635 14 0 0.0 4.8 0.03 0.03 0.03 82 1017.5
20260505192129 14 350 0.0 3.2 0.03 0.03 0.03 81 1017.4
20260505191623 14 298 0.0 3.2 0.03 0.03 0.03 80 1017.3
20260505191117 15 87 1.6 3.2 0.00 0.00 0.00 79 1017.3